Liberal, KS

10:31 AM CDT on July 26, 2017 (GMT -0500)
Liberal Municipal

Weather History for KLBL - March, 2014

Change the Weather History Date:

Sunday, March 30, 2014

  Actual Average Record
Temperature  
Mean Temperature 64 °F -  
Max Temperature 82 °F 60 °F 89 °F (1986)
Min Temperature 46 °F 33 °F 13 °F (1975)
Degree Days  
Heating Degree Days 1    
Growing Degree Days 14 (Base 50)    
Moisture  
Dew Point 28 °F    
Average Humidity 26    
Maximum Humidity 37    
Minimum Humidity 14    
Precipitation  
Precipitation 0.00 in - - ()
Sea Level Pressure  
Sea Level Pressure 29.84 in    
Wind  
Wind Speed 21 mph (South)    
Max Wind Speed 32 mph    
Max Gust Speed 38 mph    
Visibility 10 miles    
Events      
Averages and records for this station are not official NWS values.
T = Trace of Precipitation, MM = Missing Value Source: NWS Daily Summary

Daily Weather History Graph

Daily Weather History Graph

Search for Another Location

Airport or City:

Trip Planner

Search our weather history database for the weather conditions in past years. The results will help you decide how hot, cold, wet, or windy it might be!

Date:

Astronomy

Mar. 30, 2014 Rise Set
Actual Time 7:32 AM CDT 8:04 PM CDT
Civil Twilight 7:06 AM CDT 8:30 PM CDT
Nautical Twilight 6:35 AM CDT 9:01 PM CDT
Astronomical Twilight 6:04 AM CDT 9:33 PM CDT
Moon 7:19 AM CDT (3/30) 8:18 PM CDT (3/30)
Length of Visible Light 13h 24m
Length of Day
12h 32m
Waning Crescent, 0% of the Moon is Illuminated
Mar 30
Waning Crescent
Mar 30
New
Apr 7
First Quarter
Apr 15
Full
Apr 22
Last Quarter

Hourly Weather History & Observations

Time (CDT) Temp. Windchill Dew Point Humidity Pressure Visibility Wind Dir Wind Speed Gust Speed Precip Events Conditions
12:15 AM 53.6 °F - 21.2 °F 28% 30.04 in 10.0 mi SSE 19.6 mph - N/A   Clear
12:35 AM 53.6 °F - 21.2 °F 28% 30.04 in 10.0 mi SSE 16.1 mph - N/A   Clear
12:55 AM 53.6 °F - 21.2 °F 28% 30.05 in 10.0 mi SSE 21.9 mph 25.3 mph N/A   Clear
1:15 AM 53.6 °F - 19.4 °F 26% 30.04 in 10.0 mi SSE 17.3 mph - N/A   Clear
1:35 AM 53.6 °F - 21.2 °F 28% 30.04 in 10.0 mi SE 19.6 mph - N/A   Clear
1:55 AM 53.6 °F - 21.2 °F 28% 30.04 in 10.0 mi SE 19.6 mph - N/A   Clear
2:15 AM 51.8 °F - 19.4 °F 28% 30.03 in 10.0 mi ESE 16.1 mph - N/A   Clear
2:35 AM 51.8 °F - 19.4 °F 28% 30.02 in 10.0 mi ESE 19.6 mph - N/A   Clear
2:55 AM 51.8 °F - 19.4 °F 28% 30.02 in 10.0 mi ESE 17.3 mph - N/A   Clear
3:15 AM 51.8 °F - 21.2 °F 30% 30.01 in 10.0 mi ESE 18.4 mph - N/A   Clear
3:35 AM 51.8 °F - 21.2 °F 30% 30.00 in 10.0 mi ESE 21.9 mph - N/A   Clear
3:55 AM 51.8 °F - 21.2 °F 30% 30.00 in 10.0 mi ESE 20.7 mph - N/A   Clear
4:15 AM 51.8 °F - 21.2 °F 30% 29.99 in 10.0 mi ESE 20.7 mph 26.5 mph N/A   Clear
4:35 AM 50.0 °F - 19.4 °F 30% 29.98 in 10.0 mi ESE 17.3 mph - N/A   Clear
4:55 AM 50.0 °F - 21.2 °F 32% 29.98 in 10.0 mi ESE 18.4 mph 23.0 mph N/A   Clear
5:15 AM 50.0 °F - 19.4 °F 30% 29.97 in 10.0 mi ESE 16.1 mph - N/A   Clear
5:35 AM 50.0 °F - 21.2 °F 32% 29.97 in 10.0 mi ESE 18.4 mph - N/A   Clear
5:55 AM 48.2 °F - 19.4 °F 32% 29.96 in 10.0 mi ESE 19.6 mph - N/A   Clear
6:15 AM 48.2 °F - 21.2 °F 34% 29.96 in 10.0 mi ESE 19.6 mph - N/A   Clear
6:35 AM 48.2 °F - 19.4 °F 32% 29.96 in 10.0 mi SE 16.1 mph - N/A   Clear
6:55 AM 48.2 °F - 21.2 °F 34% 29.96 in 10.0 mi SE 17.3 mph - N/A   Clear
7:15 AM 48.2 °F - 21.2 °F 34% 29.96 in 10.0 mi SSE 16.1 mph - N/A   Clear
7:35 AM 46.4 °F 40.1 °F 21.2 °F 37% 29.95 in 10.0 mi SSE 15.0 mph - N/A   Clear
7:55 AM 46.4 °F 40.1 °F 21.2 °F 37% 29.96 in 10.0 mi SSE 15.0 mph - N/A   Clear
8:15 AM 48.2 °F - 23.0 °F 37% 29.96 in 10.0 mi SSE 11.5 mph - N/A   Clear
8:35 AM 48.2 °F - 23.0 °F 37% 29.95 in 10.0 mi SSE 12.7 mph - N/A   Clear
8:55 AM 50.0 °F - 24.8 °F 37% 29.95 in 10.0 mi South 16.1 mph - N/A   Clear
9:15 AM 53.6 °F - 26.6 °F 35% 29.94 in 10.0 mi SSW 16.1 mph - N/A   Clear
9:35 AM 55.4 °F - 26.6 °F 33% 29.94 in 10.0 mi SSW 16.1 mph - N/A   Clear
9:55 AM 57.2 °F - 28.4 °F 33% 29.93 in 10.0 mi SSW 20.7 mph 29.9 mph N/A   Clear
10:15 AM 60.8 °F - 30.2 °F 31% 29.93 in 10.0 mi SW 26.5 mph 32.2 mph N/A   Clear
10:35 AM 62.6 °F - 32.0 °F 32% 29.92 in 10.0 mi SSW 25.3 mph 31.1 mph N/A   Clear
10:55 AM 64.4 °F - 33.8 °F 32% 29.91 in 10.0 mi SW 29.9 mph 35.7 mph N/A   Clear
11:15 AM 66.2 °F - 33.8 °F 30% 29.90 in 10.0 mi SW 27.6 mph 33.4 mph N/A   Clear
11:35 AM 66.2 °F - 33.8 °F 30% 29.90 in 10.0 mi SW 27.6 mph 34.5 mph N/A   Clear
11:55 AM 68.0 °F - 33.8 °F 28% 29.89 in 10.0 mi SW 31.1 mph 35.7 mph N/A   Clear
12:15 PM 69.8 °F - 35.6 °F 28% 29.88 in 10.0 mi SW 31.1 mph 35.7 mph N/A   Clear
12:35 PM 69.8 °F - 33.8 °F 27% 29.87 in 10.0 mi SW 27.6 mph 35.7 mph N/A   Clear
12:55 PM 71.6 °F - 33.8 °F 25% 29.86 in 10.0 mi SSW 31.1 mph 38.0 mph N/A   Clear
1:15 PM 73.4 °F - 35.6 °F 25% 29.85 in 10.0 mi SW 26.5 mph 35.7 mph N/A   Clear
1:35 PM 75.2 °F - 33.8 °F 22% 29.84 in 10.0 mi SSW 32.2 mph 35.7 mph N/A   Clear
1:55 PM 77.0 °F - 35.6 °F 22% 29.83 in 10.0 mi SW 27.6 mph 38.0 mph N/A   Clear
2:15 PM 78.8 °F - 35.6 °F 21% 29.81 in 10.0 mi SSW 28.8 mph 35.7 mph N/A   Clear
2:35 PM 80.6 °F - 33.8 °F 18% 29.79 in 10.0 mi SSW 25.3 mph 31.1 mph N/A   Clear
2:55 PM 80.6 °F - 33.8 °F 18% 29.78 in 10.0 mi SW 27.6 mph 36.8 mph N/A   Clear
3:15 PM 80.6 °F - 32.0 °F 17% 29.76 in 10.0 mi SW 31.1 mph 38.0 mph N/A   Clear
3:35 PM 80.6 °F - 32.0 °F 17% 29.75 in 10.0 mi SSW 26.5 mph 33.4 mph N/A   Clear
3:55 PM 82.4 °F - 30.2 °F 15% 29.73 in 10.0 mi SSW 23.0 mph 32.2 mph N/A   Clear
4:15 PM 82.4 °F - 30.2 °F 15% 29.72 in 10.0 mi SSW 26.5 mph 36.8 mph N/A   Clear
4:35 PM 82.4 °F - 30.2 °F 15% 29.71 in 10.0 mi SSW 28.8 mph 34.5 mph N/A   Clear
4:55 PM 82.4 °F - 28.4 °F 14% 29.69 in 10.0 mi SSW 26.5 mph 36.8 mph N/A   Clear
5:15 PM 80.6 °F - 28.4 °F 15% 29.68 in 10.0 mi SSW 31.1 mph 35.7 mph N/A   Clear
5:35 PM 80.6 °F - 26.6 °F 14% 29.68 in 10.0 mi SSW 27.6 mph 32.2 mph N/A   Clear
5:55 PM 80.6 °F - 26.6 °F 14% 29.67 in 10.0 mi SSW 20.7 mph 29.9 mph N/A   Clear
6:15 PM 80.6 °F - 28.4 °F 15% 29.66 in 10.0 mi SSW 23.0 mph 27.6 mph N/A   Clear
6:35 PM 80.6 °F - 28.4 °F 15% 29.66 in 10.0 mi SSW 26.5 mph 31.1 mph N/A   Clear
6:55 PM 78.8 °F - 28.4 °F 16% 29.65 in 10.0 mi South 24.2 mph 29.9 mph N/A   Clear
7:15 PM 77.0 °F - 28.4 °F 17% 29.65 in 10.0 mi South 20.7 mph - N/A   Clear
7:35 PM 75.2 °F - 28.4 °F 18% 29.65 in 10.0 mi South 18.4 mph - N/A   Clear
7:55 PM 73.4 °F - 28.4 °F 19% 29.65 in 10.0 mi South 17.3 mph - N/A   Clear
8:15 PM 73.4 °F - 30.2 °F 20% 29.64 in 10.0 mi South 16.1 mph - N/A   Clear
8:35 PM 71.6 °F - 30.2 °F 22% 29.64 in 10.0 mi South 16.1 mph - N/A   Clear
8:55 PM 71.6 °F - 32.0 °F 23% 29.64 in 10.0 mi South 16.1 mph - N/A   Clear
9:15 PM 71.6 °F - 33.8 °F 25% 29.64 in 10.0 mi South 25.3 mph 32.2 mph N/A   Clear
9:35 PM 69.8 °F - 35.6 °F 28% 29.64 in 10.0 mi South 27.6 mph 32.2 mph N/A   Clear
9:55 PM 69.8 °F - 35.6 °F 28% 29.65 in 10.0 mi South 26.5 mph 35.7 mph N/A   Clear
10:15 PM 69.8 °F - 33.8 °F 27% 29.64 in 10.0 mi South 27.6 mph 35.7 mph N/A   Clear
10:35 PM 69.8 °F - 33.8 °F 27% 29.64 in 10.0 mi South 25.3 mph 36.8 mph N/A   Clear
10:55 PM 68.0 °F - 33.8 °F 28% 29.63 in 10.0 mi South 25.3 mph 33.4 mph N/A   Clear
11:15 PM 68.0 °F - 33.8 °F 28% 29.63 in 10.0 mi South 28.8 mph 33.4 mph N/A   Clear
11:35 PM 68.0 °F - 33.8 °F 28% 29.62 in 10.0 mi South 26.5 mph 32.2 mph N/A   Clear
11:55 PM 66.2 °F - 33.8 °F 30% 29.62 in 10.0 mi South 26.5 mph 33.4 mph N/A   Clear